#timestamp,LO_Frequency,Hit,StdDev 
1509026415.5,286046999.9,N
1509026435.3,286047000.3,N
1509026455.1,286047002.5,N
1509026475.9,286047000.2,N
1509026495.7,286047000.9,N
1509026515.5,286047002.6,N
1509026535.4,286047000.2,N
1509026555.2,286046999.7,N
1509026575.0,286046999.3,N
1509026575.9,286046999.3,N
1509026595.8,286046998.8,N
1509026615.6,286047000.2,N
1509026635.4,286046998.9,N
1509026655.3,286047000.2,N
1509026675.1,286046998.6,N
1509026695.8,286046998.0,N
1509026715.7,286046993.4,Y
1509026735.5,286046992.4,P
1509026755.4,286046994.8,N
1509026775.2,286046994.6,N
1509026795.0,286046992.7,N
1509026795.9,286046992.7,N
1509026815.8,286046991.9,Y
1509026835.6,286047000.4,P
1509026855.4,286047001.0,N
1509026875.3,286046999.9,N
1509026895.1,286046999.8,N
1509026915.8,286047002.6,N
1509026935.7,286046999.0,N
1509026955.5,286047002.7,N
1509026975.3,286047000.2,N
1509026995.2,286046998.1,N
1509027015.9,286046999.9,N
1509027035.7,286047006.0,N
1509027055.6,286047005.6,N
1509027075.4,286047004.1,N
1509027095.2,286047003.7,N
1509027115.1,286047003.4,N
1509027116.0,286047003.4,N
1509027135.8,286047005.2,N
1509027155.6,286047004.9,N
1509027175.5,286047005.0,N
1509027195.3,286047001.4,N
1509027215.1,286047002.5,N
1509027235.9,286047000.1,N
1509027255.7,286046998.0,N
1509027275.5,286046998.2,N
1509027295.4,286046998.1,N
1509027315.2,286046999.6,N
1509027335.0,286047000.5,N
1509027335.9,286047000.5,N
1509027355.8,286046999.7,N
1509027375.6,286047004.1,N
1509027395.4,286047003.9,N
1509027415.3,286047004.7,N
1509027435.1,286047006.9,N
1509027455.9,286047010.0,Y
1509027475.7,286047008.8,P
1509027495.5,286047006.3,N
1509027515.4,286047009.7,P
1509027535.2,286047008.6,N
1509027555.0,286047003.2,N
1509027555.9,286047003.2,N
1509027575.8,286047004.7,N
1509027595.6,286047003.2,N
1509027615.4,286047000.5,N
1509027635.3,286046995.6,N
1509027655.1,286046997.1,N
1509027675.8,286046998.0,N
1509027695.7,286046996.1,N
1509027715.5,286046991.7,N
1509027735.3,286046992.7,N
1509027755.2,286046994.8,N
1509027775.0,286046994.0,N
1509027775.9,286046994.0,N
1509027795.7,286046997.4,N
1509027815.6,286046997.0,N
1509027835.4,286046997.4,N
1509027855.2,286046999.2,N
1509027875.1,286047000.6,N
1509027876.0,286047000.6,N
1509027895.8,286047001.7,N
1509027915.7,286047002.8,N
1509027935.5,286047001.2,N
1509027955.3,286046995.7,N
1509027975.2,286046995.8,N
1509027995.9,286046995.8,N
1509028015.7,286046995.2,N
1509028035.6,286046996.3,N
1509028055.4,286046993.8,N
1509028075.2,286046995.0,N
1509028095.1,286047000.3,N
1509028096.0,286047000.3,N
1509028115.8,286046995.2,N
1509028135.6,286046999.2,N
1509028155.5,286046999.2,N
1509028175.3,286046992.0,N
1509028195.1,286046988.7,Y
1509028215.9,286046992.7,P
1509028235.7,286046993.9,N
1509028255.6,286046993.4,P
1509028275.4,286046993.2,Y
1509028295.2,286046997.0,P
1509028315.1,286046997.7,N
1509028316.0,286046997.7,N
1509028335.8,286046995.6,Y
1509028355.6,286046998.1,P
1509028375.5,286046997.7,P
1509028395.3,286047000.3,N
1509028415.1,286046999.9,N
1509028435.9,286047000.0,N
1509028455.7,286047003.2,N
1509028475.6,286047007.4,Y
1509028495.4,286047005.9,P
1509028515.2,286047007.4,N
1509028535.1,286047008.5,N
1509028536.0,286047008.5,N
1509028555.8,286047008.7,N
1509028575.6,286047009.0,N
1509028595.5,286047006.3,N
1509028615.3,286047005.1,N
1509028635.1,286047004.0,N
1509028655.9,286047004.9,N
1509028675.7,286047004.5,N
1509028695.6,286047008.7,Y
1509028715.4,286047001.1,P
1509028735.2,286046996.7,N
1509028755.0,286046999.2,N
1509028756.0,286046999.2,N
1509028775.8,286046998.9,N
1509028795.6,286046999.9,N
1509028815.5,286047003.4,N
1509028835.3,286047002.8,N
1509028855.1,286047001.2,N
1509028875.9,286047000.8,N
1509028895.7,286046999.6,N
1509028915.5,286046999.1,N
1509028935.4,286046999.0,N
1509028955.2,286046998.1,N
1509028975.0,286047001.2,N
1509028975.9,286047001.2,N
1509028995.8,286047002.6,N
1509029015.6,286046998.4,N
1509029035.4,286047004.2,N
1509029055.3,286047003.2,N
1509029075.1,286047004.0,N
1509029076.0,286047004.0,N
1509029095.8,286047005.8,N
1509029115.7,286047002.8,N
1509029135.5,286047002.3,N
1509029155.3,286047001.0,N
1509029175.2,286046996.5,N
1509029195.9,286046995.6,N
1509029215.7,286046997.2,N
1509029235.6,286046996.0,N
1509029255.4,286046996.6,N
1509029275.2,286046998.0,N
1509029295.1,286047000.6,N
1509029296.0,286047000.6,N
1509029315.8,286046999.9,N
1509029335.6,286047001.1,N
1509029355.5,286047002.8,N
1509029375.3,286047002.8,N
1509029395.1,286047003.1,N
1509029415.9,286047002.2,N
1509029435.7,286047002.3,N
1509029455.5,286047003.9,N
1509029475.4,286047002.0,N
1509029495.2,286047001.7,N
1509029515.0,286047003.7,N
1509029515.9,286047003.7,N
1509029535.8,286046998.1,N
1509029555.6,286047000.3,N
1509029575.5,286047001.4,N
1509029595.3,286047003.0,N
1509029615.1,286047002.3,N
1509029635.9,286047002.3,N
1509029655.7,286046998.4,N
1509029675.5,286047000.9,N
1509029695.4,286047002.2,N
1509029715.2,286047000.1,N
1509029735.0,286047002.1,N
1509029735.9,286047002.1,N
1509029755.8,286047000.6,N
1509029775.6,286047003.7,N
1509029795.4,286047009.1,Y
1509029815.3,286047008.7,P
1509029835.1,286047007.2,N
1509029855.8,286047003.4,N
1509029875.7,286047004.9,N
1509029895.5,286047009.1,Y
1509029915.4,286047002.3,P
1509029935.2,286047000.2,N
1509029955.0,286047000.5,N
1509029955.9,286047000.5,N
1509029975.8,286047001.5,N
1509029995.6,286047003.8,N
